Time,TemperatureF,DewpointF,PressureIn,WindDirection,WindDirectionDegrees,WindSpeedMPH,WindSpeedGustMPH,Humidity,HourlyPrecipIn,Conditions,Clouds,dailyrainin,SoftwareType,DateUTC
2013-03-11 00:00:00,51.6,33.6,30.00,SW,225,0.0,0.0,50,0.00,CLR,CLR,0.00,WeatherDisplay:10.37,2013-03-11 04:00:00,
2013-03-11 00:02:00,51.6,33.6,29.99,South,180,0.0,0.0,50,0.00,CLR,CLR,0.00,WeatherDisplay:10.37,2013-03-11 04:02:00,
2013-03-11 00:08:00,51.4,33.4,29.99,SE,135,0.0,0.0,50,0.00,CLR,CLR,0.00,WeatherDisplay:10.37,2013-03-11 04:08:00,
2013-03-11 00:13:00,51.4,33.9,30.00,ESE,112,0.0,0.0,51,0.00,CLR,CLR,0.00,WeatherDisplay:10.37,2013-03-11 04:13:00,
2013-03-11 00:18:00,51.1,33.6,29.99,SSE,158,1.5,1.5,51,0.00,CLR,CLR,0.00,WeatherDisplay:10.37,2013-03-11 04:18:00,
2013-03-11 00:23:00,51.1,33.6,29.99,South,180,0.0,1.2,51,0.00,CLR,CLR,0.00,WeatherDisplay:10.37,2013-03-11 04:23:00,
2013-03-11 00:28:00,51.1,33.6,29.99,ESE,112,0.0,0.0,51,0.00,CLR,CLR,0.00,WeatherDisplay:10.37,2013-03-11 04:28:00,
2013-03-11 00:33:00,50.7,33.7,29.99,SSE,158,0.0,0.0,52,0.00,CLR,CLR,0.00,WeatherDisplay:10.37,2013-03-11 04:33:00,
2013-03-11 00:38:00,50.2,33.2,29.98,East,90,0.0,0.0,52,0.00,CLR,CLR,0.00,WeatherDisplay:10.37,2013-03-11 04:38:00,
2013-03-11 00:43:00,49.6,32.7,29.98,North,0,0.0,0.0,52,0.00,CLR,CLR,0.00,WeatherDisplay:10.37,2013-03-11 04:43:00,
2013-03-11 00:48:00,49.3,32.4,29.98,WSW,248,0.0,0.0,52,0.00,CLR,CLR,0.00,WeatherDisplay:10.37,2013-03-11 04:48:00,
2013-03-11 00:53:00,49.1,32.7,29.98,SSE,158,0.0,0.0,53,0.00,CLR,CLR,0.00,WeatherDisplay:10.37,2013-03-11 04:53:00,
2013-03-11 00:58:00,49.1,32.7,29.98,SSW,202,0.0,0.0,53,0.00,CLR,CLR,0.00,WeatherDisplay:10.37,2013-03-11 04:58:00,
2013-03-11 01:03:00,49.3,32.9,29.98,NW,315,0.0,0.0,53,0.00,CLR,CLR,0.00,WeatherDisplay:10.37,2013-03-11 05:03:00,
2013-03-11 01:08:00,49.6,32.7,29.98,South,180,0.0,0.0,52,0.00,CLR,CLR,0.00,WeatherDisplay:10.37,2013-03-11 05:08:00,
2013-03-11 01:13:00,49.6,32.7,29.98,SW,225,0.0,0.0,52,0.00,CLR,CLR,0.00,WeatherDisplay:10.37,2013-03-11 05:13:00,
2013-03-11 01:19:00,49.6,32.7,29.97,SSE,158,0.0,0.0,52,0.00,CLR,CLR,0.00,WeatherDisplay:10.37,2013-03-11 05:19:00,
2013-03-11 01:24:00,49.6,32.7,29.97,SSW,202,0.0,0.0,52,0.00,CLR,CLR,0.00,WeatherDisplay:10.37,2013-03-11 05:24:00,
2013-03-11 01:29:00,49.5,33.0,29.97,South,180,0.4,0.4,53,0.00,CLR,CLR,0.00,WeatherDisplay:10.37,2013-03-11 05:29:00,
2013-03-11 01:34:00,49.3,32.9,29.97,South,180,1.7,1.7,53,0.00,CLR,CLR,0.00,WeatherDisplay:10.37,2013-03-11 05:34:00,
2013-03-11 01:39:00,49.1,33.2,29.97,SE,135,1.3,1.3,54,0.00,CLR,CLR,0.00,WeatherDisplay:10.37,2013-03-11 05:39:00,
2013-03-11 01:44:00,48.7,32.8,29.97,ESE,112,1.3,2.3,54,0.00,CLR,CLR,0.00,WeatherDisplay:10.37,2013-03-11 05:44:00,
2013-03-11 01:49:00,48.6,32.7,29.97,ESE,112,0.0,0.0,54,0.00,CLR,CLR,0.00,WeatherDisplay:10.37,2013-03-11 05:49:00,
2013-03-11 01:54:00,48.6,33.1,29.97,South,180,1.1,1.2,55,0.00,CLR,CLR,0.00,WeatherDisplay:10.37,2013-03-11 05:54:00,
2013-03-11 02:00:00,48.6,33.1,29.97,SW,225,2.4,2.4,55,0.00,CLR,CLR,0.00,WeatherDisplay:10.37,2013-03-11 06:00:00,
2013-03-11 02:05:00,48.6,33.1,29.97,SW,225,2.4,2.4,55,0.00,CLR,CLR,0.00,WeatherDisplay:10.37,2013-03-11 06:05:00,
2013-03-11 02:10:00,47.5,32.1,29.97,SW,225,3.8,3.8,55,0.00,CLR,CLR,0.00,WeatherDisplay:10.37,2013-03-11 06:10:00,
2013-03-11 02:15:00,47.5,32.6,29.97,South,180,0.0,0.0,56,0.00,CLR,CLR,0.00,WeatherDisplay:10.37,2013-03-11 06:15:00,
2013-03-11 02:20:00,47.5,32.6,29.98,SSW,202,0.0,0.0,56,0.00,CLR,CLR,0.00,WeatherDisplay:10.37,2013-03-11 06:20:00,
2013-03-11 02:25:00,46.9,32.5,29.97,SSW,202,0.0,0.0,57,0.00,CLR,CLR,0.00,WeatherDisplay:10.37,2013-03-11 06:25:00,
2013-03-11 02:30:00,46.6,31.7,29.97,WSW,248,0.0,0.0,56,0.00,CLR,CLR,0.00,WeatherDisplay:10.37,2013-03-11 06:30:00,
2013-03-11 02:36:00,46.8,32.3,29.97,SW,225,3.3,3.5,57,0.00,CLR,CLR,0.00,WeatherDisplay:10.37,2013-03-11 06:36:00,
2013-03-11 02:41:00,47.1,32.7,29.97,SW,225,0.8,3.5,57,0.00,CLR,CLR,0.00,WeatherDisplay:10.37,2013-03-11 06:41:00,
2013-03-11 02:46:00,47.1,32.7,29.97,SSW,202,0.0,0.0,57,0.00,CLR,CLR,0.00,WeatherDisplay:10.37,2013-03-11 06:46:00,
2013-03-11 02:51:00,47.1,32.7,29.96,WSW,248,0.0,0.0,57,0.00,CLR,CLR,0.00,WeatherDisplay:10.37,2013-03-11 06:51:00,
2013-03-11 02:56:00,46.8,32.3,29.97,WSW,248,0.0,0.0,57,0.00,CLR,CLR,0.00,WeatherDisplay:10.37,2013-03-11 06:56:00,
2013-03-11 03:01:00,46.8,32.3,29.97,WSW,248,0.0,0.0,57,0.00,CLR,CLR,0.00,WeatherDisplay:10.37,2013-03-11 07:01:00,
2013-03-11 03:07:00,46.0,32.1,29.96,SSE,158,0.0,0.0,58,0.00,CLR,CLR,0.00,WeatherDisplay:10.37,2013-03-11 07:07:00,
2013-03-11 03:12:00,46.0,32.1,29.96,SSE,158,0.0,0.0,58,0.00,CLR,CLR,0.00,WeatherDisplay:10.37,2013-03-11 07:12:00,
2013-03-11 03:17:00,46.0,32.1,29.96,ENE,68,0.0,0.0,58,0.00,CLR,CLR,0.00,WeatherDisplay:10.37,2013-03-11 07:17:00,
2013-03-11 03:22:00,46.0,32.1,29.96,SSE,158,0.0,0.0,58,0.00,CLR,CLR,0.00,WeatherDisplay:10.37,2013-03-11 07:22:00,
2013-03-11 03:28:00,45.7,31.7,29.96,SSE,158,0.0,0.0,58,0.00,CLR,CLR,0.00,WeatherDisplay:10.37,2013-03-11 07:28:00,
2013-03-11 03:33:00,45.7,31.7,29.96,SSE,158,0.0,0.0,58,0.00,CLR,CLR,0.00,WeatherDisplay:10.37,2013-03-11 07:33:00,
2013-03-11 03:38:00,45.7,31.7,29.95,ESE,112,0.0,0.0,58,0.00,CLR,CLR,0.00,WeatherDisplay:10.37,2013-03-11 07:38:00,
2013-03-11 03:43:00,45.3,31.4,29.95,ESE,112,0.0,0.0,58,0.00,CLR,CLR,0.00,WeatherDisplay:10.37,2013-03-11 07:43:00,
2013-03-11 03:48:00,45.3,31.8,29.95,ESE,112,0.0,0.0,59,0.00,CLR,CLR,0.00,WeatherDisplay:10.37,2013-03-11 07:48:00,
2013-03-11 03:53:00,45.3,31.8,29.95,ESE,112,0.0,0.0,59,0.00,CLR,CLR,0.00,WeatherDisplay:10.37,2013-03-11 07:53:00,
2013-03-11 03:58:00,45.5,32.0,29.95,SE,135,0.0,0.0,59,0.00,CLR,CLR,0.00,WeatherDisplay:10.37,2013-03-11 07:58:00,
2013-03-11 04:03:00,45.5,32.0,29.95,SE,135,0.0,0.0,59,0.00,CLR,CLR,0.00,WeatherDisplay:10.37,2013-03-11 08:03:00,
2013-03-11 04:08:00,45.5,32.0,29.95,ESE,112,0.0,0.0,59,0.00,CLR,CLR,0.00,WeatherDisplay:10.37,2013-03-11 08:08:00,
2013-03-11 04:13:00,45.5,32.0,29.93,SSW,202,0.0,0.0,59,0.00,CLR,CLR,0.00,WeatherDisplay:10.37,2013-03-11 08:13:00,
2013-03-11 04:18:00,44.8,31.3,29.93,SSW,202,0.0,0.0,59,0.00,CLR,CLR,0.00,WeatherDisplay:10.37,2013-03-11 08:18:00,
2013-03-11 04:23:00,44.4,31.0,29.92,SSW,202,0.0,0.0,59,0.00,CLR,CLR,0.00,WeatherDisplay:10.37,2013-03-11 08:23:00,
2013-03-11 04:28:00,44.4,31.4,29.92,ESE,112,0.0,0.0,60,0.00,CLR,CLR,0.00,WeatherDisplay:10.37,2013-03-11 08:28:00,
2013-03-11 04:33:00,44.2,31.2,29.92,ESE,112,0.0,0.0,60,0.00,CLR,CLR,0.00,WeatherDisplay:10.37,2013-03-11 08:33:00,
2013-03-11 04:38:00,44.2,31.6,29.92,ESE,112,0.0,0.0,61,0.00,CLR,CLR,0.00,WeatherDisplay:10.37,2013-03-11 08:38:00,
2013-03-11 04:43:00,44.2,31.2,29.92,SSE,158,0.0,0.0,60,0.00,CLR,CLR,0.00,WeatherDisplay:10.37,2013-03-11 08:43:00,
2013-03-11 04:49:00,44.2,31.6,29.92,South,180,0.0,0.0,61,0.00,CLR,CLR,0.00,WeatherDisplay:10.37,2013-03-11 08:49:00,
2013-03-11 04:54:00,44.2,31.2,29.92,SSE,158,0.0,0.0,60,0.00,CLR,CLR,0.00,WeatherDisplay:10.37,2013-03-11 08:54:00,
2013-03-11 04:59:00,44.2,31.2,29.92,SSE,158,0.0,0.0,60,0.00,CLR,CLR,0.00,WeatherDisplay:10.37,2013-03-11 08:59:00,
2013-03-11 05:04:00,44.2,31.2,29.93,SSE,158,0.0,0.0,60,0.00,CLR,CLR,0.00,WeatherDisplay:10.37,2013-03-11 09:04:00,
2013-03-11 05:09:00,43.9,30.9,29.93,SSE,158,0.0,0.0,60,0.00,CLR,CLR,0.00,WeatherDisplay:10.37,2013-03-11 09:09:00,
2013-03-11 05:14:00,43.7,30.7,29.93,SSE,158,0.0,0.0,60,0.00,CLR,CLR,0.00,WeatherDisplay:10.37,2013-03-11 09:14:00,
2013-03-11 05:19:00,43.5,31.0,29.93,SSW,202,0.0,0.0,61,0.00,CLR,CLR,0.00,WeatherDisplay:10.37,2013-03-11 09:19:00,
2013-03-11 05:24:00,43.9,31.3,29.93,SSW,202,0.0,0.0,61,0.00,CLR,CLR,0.00,WeatherDisplay:10.37,2013-03-11 09:24:00,
2013-03-11 05:30:00,44.2,31.2,29.92,South,180,0.0,0.0,60,0.00,CLR,CLR,0.00,WeatherDisplay:10.37,2013-03-11 09:30:00,
2013-03-11 05:35:00,44.4,31.4,29.92,South,180,0.0,0.0,60,0.00,CLR,CLR,0.00,WeatherDisplay:10.37,2013-03-11 09:35:00,
2013-03-11 05:40:00,44.4,31.8,29.92,South,180,0.0,0.0,61,0.00,CLR,CLR,0.00,WeatherDisplay:10.37,2013-03-11 09:40:00,
2013-03-11 05:45:00,44.2,31.6,29.92,South,180,0.0,0.0,61,0.00,CLR,CLR,0.00,WeatherDisplay:10.37,2013-03-11 09:45:00,
2013-03-11 05:50:00,43.9,31.3,29.92,South,180,0.0,0.0,61,0.00,CLR,CLR,0.00,WeatherDisplay:10.37,2013-03-11 09:50:00,
2013-03-11 05:55:00,43.9,31.3,29.92,ESE,112,0.0,0.0,61,0.00,CLR,CLR,0.00,WeatherDisplay:10.37,2013-03-11 09:55:00,
2013-03-11 06:00:00,44.2,31.6,29.92,South,180,0.0,0.0,61,0.00,CLR,CLR,0.00,WeatherDisplay:10.37,2013-03-11 10:00:00,
2013-03-11 06:05:00,44.2,31.6,29.91,East,90,0.0,0.0,61,0.00,CLR,CLR,0.00,WeatherDisplay:10.37,2013-03-11 10:05:00,
2013-03-11 06:10:00,44.2,32.0,29.92,East,90,0.0,0.0,62,0.00,CLR,CLR,0.00,WeatherDisplay:10.37,2013-03-11 10:10:00,
2013-03-11 06:15:00,44.2,32.0,29.92,ENE,68,0.0,0.0,62,0.00,CLR,CLR,0.00,WeatherDisplay:10.37,2013-03-11 10:15:00,
2013-03-11 06:20:00,44.2,32.0,29.91,NE,45,0.0,0.0,62,0.00,CLR,CLR,0.00,WeatherDisplay:10.37,2013-03-11 10:20:00,
2013-03-11 06:25:00,43.9,31.7,29.92,ENE,68,0.0,0.0,62,0.00,CLR,CLR,0.00,WeatherDisplay:10.37,2013-03-11 10:25:00,
2013-03-11 06:31:00,43.7,31.5,29.92,SW,225,0.6,0.0,62,0.00,CLR,CLR,0.00,WeatherDisplay:10.37,2013-03-11 10:31:00,
2013-03-11 06:36:00,43.5,31.4,29.92,SSW,202,0.0,0.0,62,0.00,CLR,CLR,0.00,WeatherDisplay:10.37,2013-03-11 10:36:00,
2013-03-11 06:41:00,43.5,31.4,29.92,SSW,202,0.0,0.0,62,0.00,CLR,CLR,0.00,WeatherDisplay:10.37,2013-03-11 10:41:00,
2013-03-11 06:46:00,43.5,31.4,29.92,South,180,0.0,0.0,62,0.00,CLR,CLR,0.00,WeatherDisplay:10.37,2013-03-11 10:46:00,
2013-03-11 06:51:00,43.5,31.8,29.92,SSE,158,0.0,0.0,63,0.00,CLR,CLR,0.00,WeatherDisplay:10.37,2013-03-11 10:51:00,
2013-03-11 06:56:00,43.5,31.8,29.92,WSW,248,0.0,0.0,63,0.00,CLR,CLR,0.00,WeatherDisplay:10.37,2013-03-11 10:56:00,
2013-03-11 07:02:00,43.7,31.5,29.92,ENE,68,0.0,0.0,62,0.00,CLR,CLR,0.00,WeatherDisplay:10.37,2013-03-11 11:02:00,
2013-03-11 07:07:00,43.9,31.3,29.91,SE,135,0.0,0.0,61,0.00,CLR,CLR,0.00,WeatherDisplay:10.37,2013-03-11 11:07:00,
2013-03-11 07:12:00,43.9,31.3,29.91,SE,135,0.0,0.0,61,0.00,CLR,CLR,0.00,WeatherDisplay:10.37,2013-03-11 11:12:00,
2013-03-11 07:17:00,43.9,31.3,29.91,SSW,202,0.0,0.0,61,0.00,CLR,CLR,0.00,WeatherDisplay:10.37,2013-03-11 11:17:00,
2013-03-11 07:22:00,44.1,31.5,29.91,South,180,0.0,0.0,61,0.00,CLR,CLR,0.00,WeatherDisplay:10.37,2013-03-11 11:22:00,
2013-03-11 07:27:00,44.2,31.6,29.91,South,180,0.0,0.0,61,0.00,CLR,CLR,0.00,WeatherDisplay:10.37,2013-03-11 11:27:00,
2013-03-11 07:32:00,43.9,31.3,29.91,SSW,202,0.0,0.0,61,0.00,CLR,CLR,0.00,WeatherDisplay:10.37,2013-03-11 11:32:00,
2013-03-11 07:38:00,43.3,31.6,29.91,SE,135,0.0,0.0,63,0.00,CLR,CLR,0.00,WeatherDisplay:10.37,2013-03-11 11:38:00,
2013-03-11 07:43:00,42.8,31.5,29.92,ENE,68,0.0,0.0,64,0.00,CLR,CLR,0.00,WeatherDisplay:10.37,2013-03-11 11:43:00,
2013-03-11 07:48:00,42.4,31.9,29.92,ENE,68,0.0,0.0,66,0.00,CLR,CLR,0.00,WeatherDisplay:10.37,2013-03-11 11:48:00,
2013-03-11 07:53:00,42.4,31.5,29.91,ENE,68,0.0,0.0,65,0.00,CLR,CLR,0.00,WeatherDisplay:10.37,2013-03-11 11:53:00,
2013-03-11 07:58:00,42.4,31.1,29.91,ENE,68,0.0,0.0,64,0.00,CLR,CLR,0.00,WeatherDisplay:10.37,2013-03-11 11:58:00,
2013-03-11 08:03:00,42.6,31.7,29.92,ENE,68,0.0,0.0,65,0.00,CLR,CLR,0.00,WeatherDisplay:10.37,2013-03-11 12:03:00,
2013-03-11 08:08:00,42.6,31.3,29.92,ENE,68,2.6,2.6,64,0.00,CLR,CLR,0.00,WeatherDisplay:10.37,2013-03-11 12:08:00,
2013-03-11 08:13:00,42.6,31.3,29.92,ENE,68,0.0,0.0,64,0.00,CLR,CLR,0.00,WeatherDisplay:10.37,2013-03-11 12:13:00,
2013-03-11 08:18:00,42.8,31.5,29.92,ENE,68,0.0,0.0,64,0.00,CLR,CLR,0.00,WeatherDisplay:10.37,2013-03-11 12:18:00,
2013-03-11 08:23:00,43.0,31.2,29.92,ENE,68,0.0,0.0,63,0.00,CLR,CLR,0.00,WeatherDisplay:10.37,2013-03-11 12:23:00,
2013-03-11 08:28:00,43.3,31.6,29.92,ESE,112,0.0,0.0,63,0.00,CLR,CLR,0.00,WeatherDisplay:10.37,2013-03-11 12:28:00,
2013-03-11 08:33:00,43.5,31.4,29.92,SE,135,0.0,0.0,62,0.00,CLR,CLR,0.00,WeatherDisplay:10.37,2013-03-11 12:33:00,
2013-03-11 08:38:00,43.9,31.7,29.92,SE,135,0.0,0.0,62,0.00,CLR,CLR,0.00,WeatherDisplay:10.37,2013-03-11 12:38:00,
2013-03-11 08:43:00,44.1,31.5,29.92,SE,135,0.0,0.0,61,0.00,CLR,CLR,0.00,WeatherDisplay:10.37,2013-03-11 12:43:00,
2013-03-11 08:48:00,44.4,31.8,29.92,South,180,0.0,0.0,61,0.00,CLR,CLR,0.00,WeatherDisplay:10.37,2013-03-11 12:48:00,
2013-03-11 08:53:00,44.8,31.7,29.92,South,180,0.0,0.0,60,0.00,CLR,CLR,0.00,WeatherDisplay:10.37,2013-03-11 12:53:00,
2013-03-11 08:59:00,45.0,31.9,29.92,South,180,0.0,0.0,60,0.00,CLR,CLR,0.00,WeatherDisplay:10.37,2013-03-11 12:59:00,
2013-03-11 09:04:00,45.5,32.4,29.92,SSW,202,0.0,0.0,60,0.00,CLR,CLR,0.00,WeatherDisplay:10.37,2013-03-11 13:04:00,
2013-03-11 09:09:00,45.9,32.3,29.93,South,180,0.0,0.0,59,0.00,CLR,CLR,0.00,WeatherDisplay:10.37,2013-03-11 13:09:00,
2013-03-11 09:14:00,46.0,32.5,29.93,SSW,202,0.0,0.0,59,0.00,CLR,CLR,0.00,WeatherDisplay:10.37,2013-03-11 13:14:00,
2013-03-11 09:19:00,46.4,32.4,29.93,SW,225,0.0,0.0,58,0.00,CLR,CLR,0.00,WeatherDisplay:10.37,2013-03-11 13:19:00,
2013-03-11 09:24:00,46.6,33.0,29.93,West,270,0.0,0.0,59,0.00,CLR,CLR,0.00,WeatherDisplay:10.37,2013-03-11 13:24:00,
2013-03-11 09:29:00,46.9,32.5,29.93,South,180,0.0,0.0,57,0.00,CLR,CLR,0.00,WeatherDisplay:10.37,2013-03-11 13:29:00,
2013-03-11 09:34:00,47.1,31.8,29.93,SE,135,0.0,0.0,55,0.00,CLR,CLR,0.00,WeatherDisplay:10.37,2013-03-11 13:34:00,
2013-03-11 09:39:00,47.5,31.6,29.93,East,90,0.0,0.0,54,0.00,CLR,CLR,0.00,WeatherDisplay:10.37,2013-03-11 13:39:00,
2013-03-11 09:44:00,47.5,30.2,29.93,NNE,22,0.0,0.0,51,0.00,CLR,CLR,0.00,WeatherDisplay:10.37,2013-03-11 13:44:00,
2013-03-11 09:49:00,47.5,30.2,29.93,West,270,0.0,0.0,51,0.00,CLR,CLR,0.00,WeatherDisplay:10.37,2013-03-11 13:49:00,
2013-03-11 09:54:00,47.8,31.0,29.93,NNE,22,0.0,0.0,52,0.00,CLR,CLR,0.00,WeatherDisplay:10.37,2013-03-11 13:54:00,
2013-03-11 09:59:00,47.8,31.0,29.93,SW,225,0.0,0.0,52,0.00,CLR,CLR,0.00,WeatherDisplay:10.37,2013-03-11 13:59:00,
2013-03-11 10:04:00,48.0,29.7,29.93,South,180,0.0,0.0,49,0.00,CLR,CLR,0.00,WeatherDisplay:10.37,2013-03-11 14:04:00,
2013-03-11 10:09:00,48.4,30.1,29.92,ESE,112,0.0,0.0,49,0.00,CLR,CLR,0.00,WeatherDisplay:10.37,2013-03-11 14:09:00,
2013-03-11 10:14:00,48.6,29.2,29.91,SE,135,0.0,0.0,47,0.00,CLR,CLR,0.00,WeatherDisplay:10.37,2013-03-11 14:14:00,
2013-03-11 10:19:00,48.6,29.2,29.91,SW,225,1.5,1.5,47,0.00,CLR,CLR,0.00,WeatherDisplay:10.37,2013-03-11 14:19:00,
2013-03-11 10:24:00,48.9,29.0,29.91,NE,45,0.0,0.0,46,0.00,CLR,CLR,0.00,WeatherDisplay:10.37,2013-03-11 14:24:00,
2013-03-11 10:29:00,48.7,28.9,29.92,SSW,202,0.0,0.0,46,0.00,CLR,CLR,0.00,WeatherDisplay:10.37,2013-03-11 14:29:00,
2013-03-11 10:34:00,48.9,30.1,29.92,SW,225,0.0,0.0,48,0.00,CLR,CLR,0.00,WeatherDisplay:10.37,2013-03-11 14:34:00,
2013-03-11 10:39:00,49.1,29.2,29.92,SE,135,0.0,0.0,46,0.00,CLR,CLR,0.00,WeatherDisplay:10.37,2013-03-11 14:39:00,
2013-03-11 10:44:00,49.6,30.7,29.92,SSW,202,0.0,0.0,48,0.00,CLR,CLR,0.00,WeatherDisplay:10.37,2013-03-11 14:44:00,
2013-03-11 10:49:00,49.8,30.4,29.92,SSW,202,0.0,0.0,47,0.00,CLR,CLR,0.00,WeatherDisplay:10.37,2013-03-11 14:49:00,
2013-03-11 10:54:00,49.8,30.4,29.91,WSW,248,0.0,0.0,47,0.00,CLR,CLR,0.00,WeatherDisplay:10.37,2013-03-11 14:54:00,
2013-03-11 10:59:00,50.2,31.2,29.91,SE,135,0.0,0.0,48,0.00,CLR,CLR,0.00,WeatherDisplay:10.37,2013-03-11 14:59:00,
2013-03-11 11:05:00,50.4,31.4,29.91,SE,135,0.0,0.0,48,0.00,CLR,CLR,0.00,WeatherDisplay:10.37,2013-03-11 15:05:00,
2013-03-11 11:10:00,50.4,31.9,29.92,SSE,158,0.0,0.0,49,0.00,CLR,CLR,0.00,WeatherDisplay:10.37,2013-03-11 15:10:00,
2013-03-11 11:15:00,50.5,32.6,29.91,SSE,158,0.0,0.0,50,0.00,CLR,CLR,0.00,WeatherDisplay:10.37,2013-03-11 15:15:00,
2013-03-11 11:20:00,50.2,32.7,29.91,East,90,0.0,0.0,51,0.00,CLR,CLR,0.00,WeatherDisplay:10.37,2013-03-11 15:20:00,
2013-03-11 11:25:00,50.2,32.7,29.91,East,90,0.0,0.0,51,0.00,CLR,CLR,0.00,WeatherDisplay:10.37,2013-03-11 15:25:00,
2013-03-11 11:30:00,50.0,33.1,29.91,SW,225,0.0,0.0,52,0.00,CLR,CLR,0.00,WeatherDisplay:10.37,2013-03-11 15:30:00,
2013-03-11 11:36:00,49.8,32.9,29.91,SW,225,0.0,0.0,52,0.00,CLR,CLR,0.00,WeatherDisplay:10.37,2013-03-11 15:36:00,
2013-03-11 11:41:00,49.6,33.2,29.90,SSE,158,0.0,0.0,53,0.00,CLR,CLR,0.00,WeatherDisplay:10.37,2013-03-11 15:41:00,
2013-03-11 11:46:00,49.6,33.7,29.91,South,180,0.0,0.0,54,0.00,CLR,CLR,0.00,WeatherDisplay:10.37,2013-03-11 15:46:00,
2013-03-11 11:51:00,49.6,34.1,29.90,ENE,68,0.0,0.0,55,0.00,CLR,CLR,0.00,WeatherDisplay:10.37,2013-03-11 15:51:00,
2013-03-11 11:56:00,49.6,35.0,29.90,SSE,158,0.0,0.0,57,0.00,CLR,CLR,0.00,WeatherDisplay:10.37,2013-03-11 15:56:00,
2013-03-11 12:01:00,50.2,36.4,29.89,ESE,112,0.8,1.2,59,0.00,CLR,CLR,0.00,WeatherDisplay:10.37,2013-03-11 16:01:00,
2013-03-11 12:06:00,50.5,38.0,29.89,ENE,68,0.0,0.0,62,0.00,CLR,CLR,0.00,WeatherDisplay:10.37,2013-03-11 16:06:00,
2013-03-11 12:11:00,50.9,38.3,29.89,WSW,248,1.3,1.3,62,0.00,CLR,CLR,0.00,WeatherDisplay:10.37,2013-03-11 16:11:00,
2013-03-11 12:17:00,50.9,37.9,29.89,SE,135,0.0,0.0,61,0.00,CLR,CLR,0.00,WeatherDisplay:10.37,2013-03-11 16:17:00,
2013-03-11 12:22:00,51.1,38.5,29.89,West,270,0.0,0.0,62,0.00,CLR,CLR,0.00,WeatherDisplay:10.37,2013-03-11 16:22:00,
2013-03-11 12:27:00,50.9,38.3,29.89,NE,45,0.0,0.0,62,0.00,CLR,CLR,0.00,WeatherDisplay:10.37,2013-03-11 16:27:00,
2013-03-11 12:32:00,50.7,38.6,29.88,ENE,68,0.0,0.0,63,0.00,CLR,CLR,0.00,WeatherDisplay:10.37,2013-03-11 16:32:00,
2013-03-11 12:37:00,50.9,38.7,29.88,NE,45,0.0,0.0,63,0.00,CLR,CLR,0.00,WeatherDisplay:10.37,2013-03-11 16:37:00,
2013-03-11 12:42:00,50.9,38.7,29.88,NE,45,0.0,0.0,63,0.00,CLR,CLR,0.00,WeatherDisplay:10.37,2013-03-11 16:42:00,
2013-03-11 12:47:00,52.0,40.2,29.88,SW,225,5.8,5.8,64,0.00,CLR,CLR,0.00,WeatherDisplay:10.37,2013-03-11 16:47:00,
2013-03-11 12:52:00,52.3,40.5,29.88,South,180,0.0,3.5,64,0.00,CLR,CLR,0.00,WeatherDisplay:10.37,2013-03-11 16:52:00,
2013-03-11 12:57:00,52.5,41.1,29.87,WSW,248,4.4,4.6,65,0.00,CLR,CLR,0.00,WeatherDisplay:10.37,2013-03-11 16:57:00,
2013-03-11 13:02:00,52.5,40.7,29.87,SSW,202,3.1,3.5,64,0.00,CLR,CLR,0.00,WeatherDisplay:10.37,2013-03-11 17:02:00,
2013-03-11 13:07:00,52.3,40.9,29.87,SSW,202,4.0,4.0,65,0.00,CLR,CLR,0.00,WeatherDisplay:10.37,2013-03-11 17:07:00,
2013-03-11 13:13:00,52.9,41.0,29.87,SW,225,0.0,0.0,64,0.00,CLR,CLR,0.00,WeatherDisplay:10.37,2013-03-11 17:13:00,
2013-03-11 13:18:00,53.2,41.4,29.86,West,270,3.8,3.8,64,0.00,CLR,CLR,0.00,WeatherDisplay:10.37,2013-03-11 17:18:00,
2013-03-11 13:23:00,53.8,41.5,29.86,South,180,0.0,0.0,63,0.00,CLR,CLR,0.00,WeatherDisplay:10.37,2013-03-11 17:23:00,
2013-03-11 13:28:00,54.5,42.2,29.87,SE,135,1.7,1.7,63,0.00,CLR,CLR,0.00,WeatherDisplay:10.37,2013-03-11 17:28:00,
2013-03-11 13:33:00,54.9,42.1,29.86,East,90,0.0,0.0,62,0.00,CLR,CLR,0.00,WeatherDisplay:10.37,2013-03-11 17:33:00,
2013-03-11 13:38:00,55.0,42.7,29.86,NE,45,2.2,2.3,63,0.00,CLR,CLR,0.00,WeatherDisplay:10.37,2013-03-11 17:38:00,
2013-03-11 13:43:00,56.1,43.3,29.86,ESE,112,2.9,3.5,62,0.00,CLR,CLR,0.00,WeatherDisplay:10.37,2013-03-11 17:43:00,
2013-03-11 13:48:00,56.8,44.0,29.85,North,0,0.0,0.0,62,0.00,CLR,CLR,0.00,WeatherDisplay:10.37,2013-03-11 17:48:00,
2013-03-11 13:53:00,57.6,44.6,29.84,ENE,68,0.0,0.0,62,0.00,CLR,CLR,0.00,WeatherDisplay:10.37,2013-03-11 17:53:00,
2013-03-11 13:58:00,57.9,45.0,29.84,ENE,68,0.0,0.0,62,0.00,CLR,CLR,0.00,WeatherDisplay:10.37,2013-03-11 17:58:00,
2013-03-11 14:03:00,57.4,44.9,29.84,SE,135,2.6,2.6,63,0.00,CLR,CLR,0.00,WeatherDisplay:10.37,2013-03-11 18:03:00,
2013-03-11 14:09:00,57.7,45.2,29.83,SW,225,4.0,4.0,63,0.00,CLR,CLR,0.00,WeatherDisplay:10.37,2013-03-11 18:09:00,
2013-03-11 14:14:00,58.6,45.7,29.82,SW,225,2.4,2.4,62,0.00,CLR,CLR,0.00,WeatherDisplay:10.37,2013-03-11 18:14:00,
2013-03-11 14:19:00,59.0,46.4,29.81,South,180,0.0,0.0,63,0.00,CLR,CLR,0.00,WeatherDisplay:10.37,2013-03-11 18:19:00,
2013-03-11 14:24:00,59.7,46.7,29.81,SW,225,0.0,0.0,62,0.00,CLR,CLR,0.00,WeatherDisplay:10.37,2013-03-11 18:24:00,
2013-03-11 14:29:00,59.7,46.7,29.81,WNW,292,0.8,1.2,62,0.00,CLR,CLR,0.00,WeatherDisplay:10.37,2013-03-11 18:29:00,
2013-03-11 14:34:00,59.7,47.1,29.80,NNE,22,0.0,0.0,63,0.00,CLR,CLR,0.00,WeatherDisplay:10.37,2013-03-11 18:34:00,
2013-03-11 14:39:00,59.7,47.1,29.80,NNE,22,1.3,1.3,63,0.00,CLR,CLR,0.00,WeatherDisplay:10.37,2013-03-11 18:39:00,
2013-03-11 14:44:00,59.5,47.3,29.79,SE,135,0.0,0.0,64,0.00,CLR,CLR,0.00,WeatherDisplay:10.37,2013-03-11 18:44:00,
2013-03-11 14:49:00,60.1,47.9,29.79,ESE,112,0.0,0.0,64,0.00,CLR,CLR,0.00,WeatherDisplay:10.37,2013-03-11 18:49:00,
2013-03-11 14:55:00,61.2,48.5,29.79,NW,315,0.0,0.0,63,0.00,CLR,CLR,0.00,WeatherDisplay:10.37,2013-03-11 18:55:00,
2013-03-11 15:00:00,61.9,48.7,29.78,SSW,202,0.0,0.0,62,0.00,CLR,CLR,0.00,WeatherDisplay:10.37,2013-03-11 19:00:00,
2013-03-11 15:05:00,61.9,48.7,29.77,SE,135,3.1,3.5,62,0.00,CLR,CLR,0.00,WeatherDisplay:10.37,2013-03-11 19:05:00,
2013-03-11 15:10:00,61.7,49.0,29.76,WSW,248,0.0,0.0,63,0.00,CLR,CLR,0.00,WeatherDisplay:10.37,2013-03-11 19:10:00,
2013-03-11 15:15:00,61.9,48.7,29.76,SSW,202,2.4,2.4,62,0.00,CLR,CLR,0.00,WeatherDisplay:10.37,2013-03-11 19:15:00,
2013-03-11 15:20:00,62.2,49.5,29.75,South,180,0.0,0.0,63,0.00,CLR,CLR,0.00,WeatherDisplay:10.37,2013-03-11 19:20:00,
2013-03-11 15:26:00,63.3,49.6,29.76,SSW,202,0.0,0.0,61,0.00,CLR,CLR,0.00,WeatherDisplay:10.37,2013-03-11 19:26:00,
2013-03-11 15:31:00,62.4,48.8,29.76,WSW,248,0.0,0.0,61,0.00,CLR,CLR,0.00,WeatherDisplay:10.37,2013-03-11 19:31:00,
2013-03-11 15:36:00,61.3,48.2,29.76,WSW,248,2.6,2.6,62,0.00,CLR,CLR,0.00,WeatherDisplay:10.37,2013-03-11 19:36:00,
2013-03-11 15:42:00,61.0,48.3,29.75,SSW,202,0.0,0.0,63,0.00,CLR,CLR,0.00,WeatherDisplay:10.37,2013-03-11 19:42:00,
2013-03-11 15:47:00,60.3,48.9,29.74,WNW,292,0.0,0.0,66,0.00,CLR,CLR,0.00,WeatherDisplay:10.37,2013-03-11 19:47:00,
2013-03-11 15:52:00,60.3,48.4,29.74,NE,45,1.5,1.5,65,0.00,CLR,CLR,0.00,WeatherDisplay:10.37,2013-03-11 19:52:00,
2013-03-11 15:57:00,60.1,48.7,29.74,SSW,202,0.0,0.0,66,0.00,CLR,CLR,0.00,WeatherDisplay:10.37,2013-03-11 19:57:00,
2013-03-11 16:02:00,60.1,48.7,29.74,NE,45,0.0,0.0,66,0.00,CLR,CLR,0.00,WeatherDisplay:10.37,2013-03-11 20:02:00,
2013-03-11 16:07:00,59.9,48.5,29.74,North,0,0.0,0.0,66,0.00,CLR,CLR,0.00,WeatherDisplay:10.37,2013-03-11 20:07:00,
2013-03-11 16:12:00,60.1,48.7,29.74,SE,135,0.0,0.0,66,0.00,CLR,CLR,0.00,WeatherDisplay:10.37,2013-03-11 20:12:00,
2013-03-11 16:17:00,60.4,49.0,29.74,SW,225,0.0,0.0,66,0.00,CLR,CLR,0.00,WeatherDisplay:10.37,2013-03-11 20:17:00,
2013-03-11 16:22:00,60.1,48.3,29.74,SW,225,0.0,0.0,65,0.00,CLR,CLR,0.00,WeatherDisplay:10.37,2013-03-11 20:22:00,
2013-03-11 16:28:00,60.4,49.0,29.74,SW,225,1.1,0.0,66,0.00,CLR,CLR,0.00,WeatherDisplay:10.37,2013-03-11 20:28:00,
2013-03-11 16:33:00,59.0,46.0,29.74,NE,45,7.7,10.4,62,0.00,CLR,CLR,0.00,WeatherDisplay:10.37,2013-03-11 20:33:00,
2013-03-11 16:38:00,57.2,44.7,29.73,NE,45,7.4,7.4,63,0.00,CLR,CLR,0.00,WeatherDisplay:10.37,2013-03-11 20:38:00,
2013-03-11 16:43:00,56.5,44.4,29.73,NNE,22,5.2,5.2,64,0.00,CLR,CLR,0.00,WeatherDisplay:10.37,2013-03-11 20:43:00,
2013-03-11 16:48:00,55.6,44.0,29.72,NE,45,4.9,4.9,65,0.00,CLR,CLR,0.00,WeatherDisplay:10.37,2013-03-11 20:48:00,
2013-03-11 16:53:00,55.2,43.7,29.73,NE,45,3.5,3.5,65,0.00,CLR,CLR,0.00,WeatherDisplay:10.37,2013-03-11 20:53:00,
2013-03-11 16:58:00,55.2,44.1,29.72,NE,45,2.9,3.5,66,0.00,CLR,CLR,0.00,WeatherDisplay:10.37,2013-03-11 20:58:00,
2013-03-11 17:03:00,55.0,43.9,29.73,NE,45,6.1,6.1,66,0.00,CLR,CLR,0.00,WeatherDisplay:10.37,2013-03-11 21:03:00,
2013-03-11 17:08:00,55.0,43.9,29.73,NE,45,3.5,3.5,66,0.00,CLR,CLR,0.00,WeatherDisplay:10.37,2013-03-11 21:08:00,
2013-03-11 17:13:00,54.3,43.2,29.71,NE,45,7.2,7.2,66,0.00,CLR,CLR,0.00,WeatherDisplay:10.37,2013-03-11 21:13:00,
2013-03-11 17:18:00,54.5,43.4,29.72,NE,45,6.1,6.1,66,0.00,CLR,CLR,0.00,WeatherDisplay:10.37,2013-03-11 21:18:00,
2013-03-11 17:24:00,54.1,43.4,29.71,NE,45,5.8,5.8,67,0.00,CLR,CLR,0.00,WeatherDisplay:10.37,2013-03-11 21:24:00,
2013-03-11 17:29:00,54.3,43.6,29.72,NE,45,4.6,4.6,67,0.00,CLR,CLR,0.00,WeatherDisplay:10.37,2013-03-11 21:29:00,
2013-03-11 17:34:00,54.1,43.4,29.71,NE,45,7.7,8.1,67,0.00,CLR,CLR,0.00,WeatherDisplay:10.37,2013-03-11 21:34:00,
2013-03-11 17:39:00,54.1,43.4,29.71,NE,45,7.2,7.2,67,0.00,CLR,CLR,0.00,WeatherDisplay:10.37,2013-03-11 21:39:00,
2013-03-11 17:44:00,54.1,43.4,29.72,NE,45,6.8,6.9,67,0.00,CLR,CLR,0.00,WeatherDisplay:10.37,2013-03-11 21:44:00,
2013-03-11 17:49:00,54.1,43.8,29.72,NE,45,5.3,5.8,68,0.00,CLR,CLR,0.00,WeatherDisplay:10.37,2013-03-11 21:49:00,
2013-03-11 17:54:00,54.0,43.6,29.71,NE,45,7.2,7.2,68,0.00,CLR,CLR,0.00,WeatherDisplay:10.37,2013-03-11 21:54:00,
2013-03-11 17:59:00,54.0,43.6,29.72,NE,45,5.8,5.8,68,0.00,CLR,CLR,0.00,WeatherDisplay:10.37,2013-03-11 21:59:00,
2013-03-11 18:05:00,54.0,43.6,29.71,NE,45,5.5,5.8,68,0.00,CLR,CLR,0.00,WeatherDisplay:10.37,2013-03-11 22:05:00,
2013-03-11 18:10:00,54.0,43.6,29.71,NE,45,4.2,4.6,68,0.00,CLR,CLR,0.00,WeatherDisplay:10.37,2013-03-11 22:10:00,
2013-03-11 18:15:00,53.8,43.5,29.71,NE,45,5.2,5.8,68,0.00,CLR,CLR,0.00,WeatherDisplay:10.37,2013-03-11 22:15:00,
2013-03-11 18:20:00,56.8,44.0,29.71,NE,45,5.5,5.8,62,0.00,CLR,CLR,0.00,WeatherDisplay:10.37,2013-03-11 22:20:00,
2013-03-11 18:25:00,53.6,43.3,29.71,NE,45,6.8,6.9,68,0.00,CLR,CLR,0.00,WeatherDisplay:10.37,2013-03-11 22:25:00,
2013-03-11 18:30:00,53.4,43.1,29.70,NE,45,5.2,5.8,68,0.00,CLR,CLR,0.00,WeatherDisplay:10.37,2013-03-11 22:30:00,
2013-03-11 18:35:00,53.4,43.1,29.71,NE,45,4.9,4.9,68,0.00,CLR,CLR,0.00,WeatherDisplay:10.37,2013-03-11 22:35:00,
2013-03-11 18:41:00,53.8,43.5,29.71,NE,45,5.3,5.8,68,0.00,CLR,CLR,0.00,WeatherDisplay:10.37,2013-03-11 22:41:00,
2013-03-11 18:46:00,53.6,43.3,29.71,NE,45,5.8,5.8,68,0.00,CLR,CLR,0.00,WeatherDisplay:10.37,2013-03-11 22:46:00,
2013-03-11 18:51:00,53.2,42.9,29.71,NE,45,5.2,5.8,68,0.00,CLR,CLR,0.00,WeatherDisplay:10.37,2013-03-11 22:51:00,
2013-03-11 18:57:00,53.4,43.5,29.71,NE,45,3.5,3.5,69,0.00,CLR,CLR,0.00,WeatherDisplay:10.37,2013-03-11 22:57:00,
2013-03-11 19:02:00,53.2,43.3,29.71,NE,45,3.8,3.8,69,0.00,CLR,CLR,0.00,WeatherDisplay:10.37,2013-03-11 23:02:00,
2013-03-11 19:07:00,53.1,43.2,29.71,NE,45,4.2,4.6,69,0.00,CLR,CLR,0.00,WeatherDisplay:10.37,2013-03-11 23:07:00,
2013-03-11 19:12:00,53.1,43.2,29.71,NE,45,4.4,4.6,69,0.00,CLR,CLR,0.00,WeatherDisplay:10.37,2013-03-11 23:12:00,
2013-03-11 19:17:00,52.9,43.4,29.71,ENE,68,4.0,5.8,70,0.00,CLR,CLR,0.00,WeatherDisplay:10.37,2013-03-11 23:17:00,
2013-03-11 19:22:00,53.2,43.7,29.71,NE,45,3.8,4.6,70,0.00,CLR,CLR,0.00,WeatherDisplay:10.37,2013-03-11 23:22:00,
2013-03-11 19:27:00,53.2,43.7,29.71,ENE,68,4.6,4.6,70,0.00,CLR,CLR,0.00,WeatherDisplay:10.37,2013-03-11 23:27:00,
2013-03-11 19:32:00,53.2,43.7,29.71,ENE,68,3.1,3.5,70,0.00,CLR,CLR,0.00,WeatherDisplay:10.37,2013-03-11 23:32:00,
2013-03-11 19:38:00,53.1,43.5,29.72,ESE,112,0.0,0.0,70,0.00,CLR,CLR,0.00,WeatherDisplay:10.37,2013-03-11 23:38:00,
2013-03-11 19:43:00,53.1,43.5,29.71,ESE,112,0.2,0.0,70,0.00,CLR,CLR,0.00,WeatherDisplay:10.37,2013-03-11 23:43:00,
2013-03-11 19:48:00,52.9,43.7,29.71,SE,135,0.0,1.2,71,0.00,CLR,CLR,0.00,WeatherDisplay:10.37,2013-03-11 23:48:00,
2013-03-11 19:54:00,52.7,43.6,29.71,SE,135,0.0,0.0,71,0.00,CLR,CLR,0.00,WeatherDisplay:10.37,2013-03-11 23:54:00,
2013-03-11 19:59:00,52.5,43.4,29.71,SE,135,0.0,0.0,71,0.00,CLR,CLR,0.00,WeatherDisplay:10.37,2013-03-11 23:59:00,
2013-03-11 20:04:00,52.3,43.6,29.71,SSE,158,0.0,0.0,72,0.00,CLR,CLR,0.00,WeatherDisplay:10.37,2013-03-12 00:04:00,
2013-03-11 20:09:00,52.3,43.9,29.70,SSE,158,0.0,0.0,73,0.00,CLR,CLR,0.00,WeatherDisplay:10.37,2013-03-12 00:09:00,
2013-03-11 20:14:00,52.2,43.8,29.69,SSE,158,0.0,0.0,73,0.00,CLR,CLR,0.00,WeatherDisplay:10.37,2013-03-12 00:14:00,
2013-03-11 20:19:00,52.3,44.6,29.69,SSE,158,0.6,1.2,75,0.00,CLR,CLR,0.00,WeatherDisplay:10.37,2013-03-12 00:19:00,
2013-03-11 20:24:00,52.5,44.8,29.68,SE,135,1.1,1.2,75,0.00,CLR,CLR,0.00,WeatherDisplay:10.37,2013-03-12 00:24:00,
2013-03-11 20:29:00,52.9,45.9,29.68,NW,315,0.0,0.0,77,0.00,CLR,CLR,0.00,WeatherDisplay:10.37,2013-03-12 00:29:00,
2013-03-11 20:34:00,53.8,46.7,29.68,WSW,248,0.0,0.0,77,0.00,CLR,CLR,0.00,WeatherDisplay:10.37,2013-03-12 00:34:00,
2013-03-11 20:39:00,54.1,46.7,29.69,East,90,0.6,1.2,76,0.00,CLR,CLR,0.00,WeatherDisplay:10.37,2013-03-12 00:39:00,
2013-03-11 20:45:00,55.0,47.6,29.69,East,90,2.4,0.0,76,0.00,CLR,CLR,0.00,WeatherDisplay:10.37,2013-03-12 00:45:00,
2013-03-11 20:50:00,55.8,48.0,29.69,East,90,0.0,0.0,75,0.00,CLR,CLR,0.00,WeatherDisplay:10.37,2013-03-12 00:50:00,
2013-03-11 20:55:00,56.3,48.1,29.69,WSW,248,0.0,0.0,74,0.00,CLR,CLR,0.00,WeatherDisplay:10.37,2013-03-12 00:55:00,
2013-03-11 21:00:00,56.7,48.5,29.69,SW,225,0.8,1.2,74,0.00,CLR,CLR,0.00,WeatherDisplay:10.37,2013-03-12 01:00:00,
2013-03-11 21:05:00,57.0,48.8,29.69,SW,225,0.4,0.0,74,0.00,CLR,CLR,0.00,WeatherDisplay:10.37,2013-03-12 01:05:00,
2013-03-11 21:10:00,57.6,49.0,29.69,SE,135,0.0,0.0,73,0.00,CLR,CLR,0.00,WeatherDisplay:10.37,2013-03-12 01:10:00,
2013-03-11 21:15:00,57.9,48.9,29.69,NNE,22,0.0,0.0,72,0.00,CLR,CLR,0.00,WeatherDisplay:10.37,2013-03-12 01:15:00,
2013-03-11 21:20:00,58.3,49.3,29.69,SSW,202,4.2,4.6,72,0.00,CLR,CLR,0.00,WeatherDisplay:10.37,2013-03-12 01:20:00,
2013-03-11 21:25:00,58.6,49.6,29.69,ENE,68,0.6,1.2,72,0.00,CLR,CLR,0.00,WeatherDisplay:10.37,2013-03-12 01:25:00,
2013-03-11 21:31:00,58.6,49.6,29.69,ESE,112,0.2,0.0,72,0.00,CLR,CLR,0.00,WeatherDisplay:10.37,2013-03-12 01:31:00,
2013-03-11 21:36:00,58.6,49.6,29.69,WSW,248,4.4,4.6,72,0.00,CLR,CLR,0.00,WeatherDisplay:10.37,2013-03-12 01:36:00,
2013-03-11 21:41:00,58.5,49.8,29.69,SSW,202,0.0,2.3,73,0.00,CLR,CLR,0.00,WeatherDisplay:10.37,2013-03-12 01:41:00,
2013-03-11 21:46:00,58.3,50.0,29.69,SSE,158,2.4,2.4,74,0.00,CLR,CLR,0.00,WeatherDisplay:10.37,2013-03-12 01:46:00,
2013-03-11 21:51:00,58.1,50.2,29.69,ENE,68,0.8,1.2,75,0.00,CLR,CLR,0.00,WeatherDisplay:10.37,2013-03-12 01:51:00,
2013-03-11 21:56:00,57.7,50.2,29.69,WSW,248,3.8,3.8,76,0.00,CLR,CLR,0.00,WeatherDisplay:10.37,2013-03-12 01:56:00,
2013-03-11 22:01:00,57.4,50.6,29.69,ESE,112,1.3,1.3,78,0.00,CLR,CLR,0.00,WeatherDisplay:10.37,2013-03-12 02:01:00,
2013-03-11 22:07:00,56.8,50.4,29.69,West,270,2.0,2.3,79,0.00,CLR,CLR,0.00,WeatherDisplay:10.37,2013-03-12 02:07:00,
2013-03-11 22:12:00,56.3,50.2,29.69,WNW,292,3.5,3.5,80,0.00,CLR,CLR,0.00,WeatherDisplay:10.37,2013-03-12 02:12:00,
2013-03-11 22:17:00,55.8,49.7,29.69,West,270,4.6,4.6,80,0.00,CLR,CLR,0.00,WeatherDisplay:10.37,2013-03-12 02:17:00,
2013-03-11 22:22:00,54.7,49.0,29.70,NW,315,4.4,4.6,81,0.03,RA,RA,0.03,WeatherDisplay:10.37,2013-03-12 02:22:00,
2013-03-11 22:27:00,54.1,48.8,29.70,NW,315,0.0,0.0,82,0.03,RA,RA,0.03,WeatherDisplay:10.37,2013-03-12 02:27:00,
2013-03-11 22:32:00,53.8,48.4,29.70,West,270,0.0,0.0,82,0.03,,,0.03,WeatherDisplay:10.37,2013-03-12 02:32:00,
2013-03-11 22:37:00,53.2,48.2,29.70,NW,315,0.0,0.0,83,0.06,RA,RA,0.06,WeatherDisplay:10.37,2013-03-12 02:37:00,
2013-03-11 22:42:00,52.5,47.8,29.71,NW,315,0.0,0.0,84,0.06,RA,RA,0.06,WeatherDisplay:10.37,2013-03-12 02:42:00,
2013-03-11 22:48:00,52.3,48.0,29.70,NNW,338,0.0,0.0,85,0.09,RA,RA,0.09,WeatherDisplay:10.37,2013-03-12 02:48:00,
2013-03-11 22:53:00,52.0,47.9,29.69,NNW,338,0.0,0.0,86,0.09,RA,RA,0.09,WeatherDisplay:10.37,2013-03-12 02:53:00,
2013-03-11 22:58:00,51.6,47.9,29.69,NNE,22,0.0,0.0,87,0.09,,,0.12,WeatherDisplay:10.37,2013-03-12 02:58:00,
2013-03-11 23:03:00,51.4,48.0,29.69,NNW,338,0.0,0.0,88,0.12,RA,RA,0.12,WeatherDisplay:10.37,2013-03-12 03:03:00,
2013-03-11 23:08:00,51.4,48.0,29.69,NW,315,0.0,0.0,88,0.18,RA,RA,0.18,WeatherDisplay:10.37,2013-03-12 03:08:00,
2013-03-11 23:13:00,51.3,47.8,29.69,NNW,338,0.0,0.0,88,0.18,RA,RA,0.18,WeatherDisplay:10.37,2013-03-12 03:13:00,
2013-03-11 23:18:00,51.1,47.6,29.69,North,0,0.0,0.0,88,0.21,RA,RA,0.21,WeatherDisplay:10.37,2013-03-12 03:18:00,
2013-03-11 23:23:00,51.1,48.0,29.69,South,180,0.0,0.0,89,0.21,RA,RA,0.24,WeatherDisplay:10.37,2013-03-12 03:23:00,
2013-03-11 23:28:00,51.1,48.0,29.69,NW,315,0.0,0.0,89,0.21,RA,RA,0.24,WeatherDisplay:10.37,2013-03-12 03:28:00,
2013-03-11 23:34:00,51.1,48.0,29.69,SSE,158,0.0,0.0,89,0.25,RA,RA,0.28,WeatherDisplay:10.37,2013-03-12 03:34:00,
2013-03-11 23:39:00,51.1,48.0,29.68,SSE,158,0.0,0.0,89,0.21,RA,RA,0.28,WeatherDisplay:10.37,2013-03-12 03:39:00,
2013-03-11 23:44:00,51.1,48.0,29.68,South,180,0.0,0.0,89,0.21,CLR,CLR,0.28,WeatherDisplay:10.37,2013-03-12 03:44:00,
2013-03-11 23:49:00,50.9,47.8,29.69,SSW,202,0.0,0.0,89,0.18,CLR,CLR,0.28,WeatherDisplay:10.37,2013-03-12 03:49:00,
2013-03-11 23:54:00,50.9,47.8,29.68,ESE,112,0.0,0.0,89,0.21,RA,RA,0.31,WeatherDisplay:10.37,2013-03-12 03:54:00,
2013-03-11 23:59:00,50.7,47.6,29.68,ESE,112,0.0,0.0,89,0.18,RA,RA,0.31,WeatherDisplay:10.37,2013-03-12 03:59:00,